Location: Unspecified
(0.0000°N, 0.0000°E)
Time: 03:37:00
(UTC+00:00)

OBJECT M - Pass Details

Date: 20 February 2026
Orbit: 539 x 546 km, 97.4° (Epoch: 6 March)

Event Time Altitude Azimuth Distance (km) Brightness Sun altitude
Rises 03:43:43 0° 145° (SE) 2,711 ? -36.7°
Reaches altitude 10° 03:46:14 10° 129° (SE) 1,815 ? -36.1°
Enters shadow 03:46:37 12° 125° (SE) 1,696 ? -36.0°
